Погода в Ранауэй-Бей

Ямайка     18°27′18″N   77°20′01″W
темп.,
°C
ветер,
м/с
пор.,
м/с
влажн.,
%
обл.,
%
осадки,
мм/ч
давл.,
гПа
погр.,
м
11 мая, вт
вт1101:00+26в811794 0.1 1015873
04:00+26в69772 0.0 1014761
07:00+27в79770 0.0 1016828
10:00+28в89710 0.0 1017803
13:00+28в1111739 0.1 1015682
16:00+28в89710 0.0 1014810
19:00+27вюв810750 0.0 1014524
22:00+27вюв710730 0.0 1016602
12 мая, ср
ср1201:00+26вюв57693 0.0 1014402
04:00+26вюв8118028 0.0 1014754
07:00+27в898049 0.1 1016868
10:00+28в910740 0.0 1016819
13:00+28в12127547 0.0 1015793
16:00+28в10117189 0.0 1014738
19:00+27вюв797473 0.0 1015559
22:00+26вюв577613 0.0 1016457
13 мая, чт
чт1301:00+26юв357365 0.0 1015394
04:00+26вюв58735 0.0 1015556
07:00+27в687815 0.0 1016834
10:00+27в66775 0.0 1017735
13:00+27всв67778 0.1 1015568
16:00+28в67765 0.1 1014607
19:00+27вюв44795 0.1 1014338
22:00+27в3378100 0.0 1016464
14 мая, пт
пт1401:00+26в34745 0.0 1015523
04:00+26вюв45803 0.0 1014437
07:00+26вюв34735 0.0 1015369
10:00+26всв34765 0.0 1016412
13:00+27всв557213 0.0 1015467
16:00+28всв557515 0.1 1014700
19:00+27вюв33795 0.4 1014460
22:00+26юв22795 0.0 1016334
15 мая, сб
сб1501:00+26ююв21805 0.3 1014267
04:00+26ююв11796 0.0 1014292
07:00+26юв22808 0.0 1015385
10:00+27всв447898 0.2 1016502
13:00+27св447646 0.3 1014510
16:00+27всв547457 0.1 1013661
19:00+27вюв33779 0.1 1014351
22:00+26в34794 0.3 1015396